FW4102 Weather Reports


time (UTC)temp
C
wind
direction
speed
KPH
gust
KPH
rain 1hr
cm
rain 24hr
cm
rain mn
cm
humidity
%
barometer
mb
20260510060047 15 0 0.0 3.2 0.00 0.00 0.00 58 1027.8
20260510054533 15 0 0.0 6.4 0.00 0.00 0.00 57 1027.8
20260510053041 15 0 0.0 9.7 0.00 0.00 0.00 57 1027.8
20260510051545 15 166 3.2 9.7 0.00 0.00 0.00 57 1027.7
20260510050037 15 0 3.2 11.3 0.00 0.00 0.00 57 1027.8
20260510044538 15 0 0.0 9.7 0.00 0.00 0.00 56 1027.8
20260510043049 15 0 0.0 6.4 0.00 0.00 0.00 56 1028.0
20260510041537 15 192 0.0 6.4 0.00 0.00 0.00 60 1028.0
20260510040036 15 0 1.6 6.4 0.00 0.00 0.00 59 1027.9
20260510034543 14 0 0.0 4.8 0.00 0.00 0.00 60 1028.2
20260510033040 14 0 0.0 6.4 0.00 0.00 0.00 60 1028.2
20260510031605 15 0 1.6 4.8 0.00 0.05 0.00 60 1028.3
20260510030038 15 0 1.6 8.0 0.00 0.05 0.00 57 1028.3
20260510024538 14 196 0.0 6.4 0.00 0.05 0.00 59 1028.6
20260510023045 14 197 0.0 6.4 0.00 0.05 0.00 59 1028.9
20260510021542 13 0 0.0 4.8 0.00 0.05 0.00 59 1029.1
20260510020037 13 0 0.0 0.0 0.00 0.05 0.00 60 1029.2
20260510014538 13 0 0.0 0.0 0.00 0.05 0.00 60 1029.4
20260510013038 13 0 0.0 4.8 0.00 0.05 0.00 62 1029.5
20260510011553 12 0 0.0 6.4 0.00 0.05 0.00 64 1029.4
20260510010044 12 0 0.0 0.0 0.00 0.05 0.00 67 1029.4
20260510004538 12 0 0.0 0.0 0.00 0.05 0.00 69 1029.3
20260510003038 11 197 1.6 4.8 0.00 0.05 0.00 69 1029.4
20260510001537 11 0 0.0 4.8 0.00 0.05 0.00 69 1029.5
20260510000037 11 0 0.0 3.2 0.00 0.05 0.00 70 1029.5
20260509234536 11 0 0.0 0.0 0.00 0.05 0.00 70 1029.4
20260509233037 11 0 0.0 6.4 0.00 0.05 0.00 70 1029.6
20260509231539 11 0 0.0 0.0 0.00 0.05 0.00 70 1029.5
20260509230037 11 0 0.0 8.0 0.00 0.05 0.00 70 1029.4
20260509224533 11 199 0.0 6.4 0.00 0.05 0.00 69 1029.3
20260509223037 11 0 0.0 0.0 0.00 0.05 0.00 70 1029.2
20260509221539 11 0 0.0 0.0 0.00 0.08 0.00 69 1028.9
20260509220044 11 0 0.0 0.0 0.00 0.08 0.00 69 1028.8
20260509214537 10 0 0.0 0.0 0.00 0.08 0.00 69 1028.6
20260509213049 10 0 0.0 0.0 0.00 0.08 0.00 69 1028.4
20260509211605 10 0 0.0 0.0 0.00 0.08 0.00 69 1028.3
20260509210037 10 0 0.0 0.0 0.00 0.08 0.00 69 1028.3
20260509204544 10 0 0.0 0.0 0.00 0.08 0.00 69 1028.2
20260509203042 10 0 0.0 0.0 0.00 0.08 0.00 69 1028.1
20260509201537 10 0 0.0 3.2 0.00 0.10 0.00 69 1028.1
20260509200035 10 0 1.6 9.7 0.00 0.10 0.00 69 1027.9
20260509194539 10 0 0.0 0.0 0.00 0.10 0.00 69 1027.8
20260509193036 10 0 0.0 0.0 0.00 0.10 0.00 69 1027.7
20260509191537 10 0 0.0 0.0 0.00 0.10 0.00 68 1027.6
20260509190045 10 0 0.0 0.0 0.00 0.10 0.00 68 1027.5
20260509184535 10 0 0.0 0.0 0.00 0.10 0.00 68 1027.3
20260509183037 10 0 0.0 0.0 0.00 0.10 0.00 68 1027.2
20260509181534 10 0 0.0 0.0 0.00 0.10 0.00 68 1027.2
20260509180041 10 0 0.0 0.0 0.00 0.10 0.00 68 1027.2
20260509174536 10 0 0.0 0.0 0.00 0.10 0.00 68 1026.9
20260509173037 10 0 0.0 0.0 0.00 0.10 0.00 67 1027.0
20260509171538 10 0 0.0 4.8 0.00 0.10 0.00 67 1027.0
20260509170037 10 202 1.6 3.2 0.00 0.10 0.00 67 1027.2
20260509164536 10 202 1.6 4.8 0.00 0.10 0.00 67 1027.3
20260509163048 11 202 1.6 6.4 0.00 0.10 0.00 67 1027.4
20260509161540 11 202 0.0 4.8 0.00 0.10 0.00 67 1027.6
20260509160039 11 0 0.0 0.0 0.00 0.10 0.00 67 1027.5
20260509154537 11 0 0.0 0.0 0.00 0.10 0.00 66 1027.5
20260509153036 11 0 0.0 0.0 0.00 0.10 0.00 66 1027.5
20260509151536 11 0 0.0 0.0 0.00 0.10 0.00 66 1027.6
20260509150038 11 0 0.0 0.0 0.00 0.10 0.00 66 1027.7
20260509144537 11 0 0.0 0.0 0.00 0.10 0.00 66 1027.8
20260509143037 11 0 0.0 0.0 0.00 0.08 0.00 66 1027.8
20260509141537 11 0 0.0 0.0 0.00 0.08 0.08 65 1027.8
20260509140039 11 0 0.0 0.0 0.00 0.08 0.08 65 1027.8
20260509134541 11 0 0.0 4.8 0.00 0.08 0.08 65 1027.8
20260509133042 11 0 0.0 0.0 0.00 0.08 0.08 65 1027.8
20260509131537 11 0 0.0 0.0 0.00 0.08 0.08 65 1027.9
20260509130037 11 0 0.0 0.0 0.00 0.08 0.08 65 1028.2
20260509124538 11 0 0.0 0.0 0.00 0.08 0.08 65 1028.1
20260509123037 11 0 0.0 0.0 0.00 0.08 0.08 64 1028.1
20260509121539 11 0 0.0 0.0 0.00 0.08 0.08 64 1028.2
20260509120038 11 0 0.0 0.0 0.00 0.08 0.08 64 1028.1
20260509114543 11 0 0.0 0.0 0.00 0.08 0.08 64 1028.0
20260509113036 11 0 0.0 0.0 0.00 0.08 0.08 64 1028.1
20260509111536 11 0 0.0 0.0 0.00 0.08 0.08 63 1028.1
20260509110033 11 0 0.0 0.0 0.00 0.08 0.08 63 1028.2
20260509104538 11 0 0.0 0.0 0.00 0.08 0.08 63 1028.3
20260509103036 11 0 0.0 0.0 0.00 0.08 0.08 63 1028.2
20260509101538 11 0 0.0 0.0 0.00 0.08 0.08 63 1028.2
20260509100038 11 0 0.0 3.2 0.00 0.08 0.08 62 1028.2
20260509094538 11 0 0.0 0.0 0.00 0.08 0.08 62 1028.2
20260509093038 11 0 0.0 0.0 0.00 0.08 0.08 62 1028.2
20260509091538 12 0 0.0 0.0 0.00 0.08 0.08 62 1028.2
20260509090035 12 0 0.0 3.2 0.00 0.08 0.08 62 1028.2
20260509084540 12 0 0.0 3.2 0.00 0.08 0.08 61 1028.2
20260509083036 12 0 0.0 6.4 0.00 0.08 0.08 61 1028.1
20260509081537 12 0 0.0 1.6 0.00 0.08 0.08 61 1028.0
20260509080053 12 0 0.0 0.0 0.00 0.08 0.08 61 1027.8
20260509074538 13 0 0.0 0.0 0.00 0.08 0.08 61 1027.7
20260509073110 13 0 0.0 0.0 0.00 0.08 0.08 61 1027.7
20260509071537 13 0 0.0 1.6 0.00 0.08 0.08 61 1027.7
20260509070040 13 0 0.0 3.2 0.00 0.08 0.08 61 1027.6
20260509064543 13 0 0.0 6.4 0.00 0.08 0.08 61 1027.5
20260509063037 13 205 0.0 6.4 0.00 0.08 0.08 61 1027.5
20260509061549 13 0 0.0 3.2 0.00 0.08 0.08 61 1027.5